White Rock, British Columbia

7:19 AM PDT on October 23, 2017 (GMT -0700)
White Rock

Weather History for CWWK - November, 2013

Change the Weather History Date:

Saturday, November 2, 2013

  Actual Average Record
Temperature  
Mean Temperature 47 °F -  
Max Temperature 51 °F - - ()
Min Temperature 42 °F - - ()
Degree Days  
Heating Degree Days 18    
Moisture  
Dew Point 44 °F    
Average Humidity 91    
Maximum Humidity 92    
Minimum Humidity 86    
Precipitation  
Precipitation 0.71 in - - ()
Sea Level Pressure  
Sea Level Pressure 29.65 in    
Wind  
Wind Speed 4 mph ()    
Max Wind Speed 8 mph    
Max Gust Speed -    
T = Trace of Precipitation, MM = Missing Value Source: Averaged Metar Reports

Daily Weather History Graph

Daily Weather History Graph

Search for Another Location

Airport or City:

Trip Planner

Search our weather history database for the weather conditions in past years. The results will help you decide how hot, cold, wet, or windy it might be!

Date:

Astronomy

Nov. 02, 2013 Rise Set
Actual Time 8:00 AM PDT 5:48 PM PDT
Civil Twilight 7:27 AM PDT 6:21 PM PDT
Nautical Twilight 6:49 AM PDT 6:58 PM PDT
Astronomical Twilight 6:12 AM PDT 7:35 PM PDT
Moon 7:00 AM PDT (11/2) 5:24 PM PDT (11/2)
Length of Visible Light 10h 54m
Length of Day
9h 47m
Waning Crescent, 1% of the Moon is Illuminated
Nov 2
Waning Crescent
Nov 3
New
Nov 9
First Quarter
Nov 17
Full
Nov 25
Last Quarter

Hourly Weather History & Observations

Time (PDT) Temp. Windchill Dew Point Humidity Pressure Visibility Wind Dir Wind Speed Gust Speed Precip Events Conditions
12:00 AM 50.7 °F - 48.2 °F 91% 29.84 in - NNE 4.6 mph - 0.02 in   Unknown
1:00 AM 50.7 °F - 48.2 °F 91% 29.80 in - NE 4.6 mph - 0.02 in   Unknown
2:00 AM 50.4 °F - 47.8 °F 91% 29.77 in - NE 4.6 mph - 0.04 in   Unknown
3:00 AM 50.0 °F - 47.5 °F 91% 29.71 in - NE 5.8 mph - 0.03 in   Unknown
4:00 AM 49.6 °F - 47.3 °F 92% 29.67 in - ENE 4.6 mph - 0.16 in   Unknown
5:00 AM 49 °F - 47 °F 89% 29.62 in - ENE 4.6 mph - -  
5:00 AM 49.1 °F - 46.8 °F 92% 29.62 in - ENE 4.6 mph - 0.23 in   Unknown
6:00 AM 48.6 °F - 46.4 °F 92% 29.56 in - NE 5.8 mph - 0.16 in   Unknown
7:00 AM 48.0 °F - 45.7 °F 92% 29.53 in - NE 5.8 mph - 0.04 in   Unknown
8:00 AM 48.0 °F - 45.5 °F 91% 29.47 in - NE 8.1 mph - N/A   Unknown
9:00 AM 47.8 °F - 45.1 °F 90% 29.44 in - NNE 6.9 mph - N/A   Unknown
10:00 AM 47.5 °F - 44.8 °F 90% 29.43 in - NNE 6.9 mph - 0.16 in   Unknown
11:00 AM 47 °F - 45 °F 90% 29.45 in - North 5.8 mph - -  
11:00 AM 47.5 °F - 45.0 °F 91% 29.45 in - North 5.8 mph - 0.19 in   Unknown
12:00 PM 47.7 °F - 45.3 °F 92% 29.47 in - NW 2.3 mph - 0.09 in   Unknown
1:00 PM 45.9 °F 44.6 °F 43.5 °F 92% 29.51 in - WNW 3.5 mph - 0.14 in   Unknown
2:00 PM 45.9 °F 44.6 °F 43.5 °F 92% 29.57 in - WNW 3.5 mph - 0.21 in   Unknown
3:00 PM 46.4 °F - 43.9 °F 91% 29.63 in - WNW 1.2 mph - 0.11 in   Unknown
4:00 PM 45.9 °F - 43.2 °F 90% 29.68 in - WNW 1.2 mph - 0.05 in   Unknown
5:00 PM 45 °F - 42 °F 86% 29.72 in - NE 2.3 mph - -  
5:00 PM 45.1 °F - 42.3 °F 90% 29.72 in - NE 2.3 mph - 0.09 in   Unknown
6:00 PM 43.5 °F - 41.0 °F 91% 29.74 in - ENE 1.2 mph - 0.09 in   Unknown
7:00 PM 43.9 °F - 41.4 °F 91% 29.76 in - West 1.2 mph - 0.05 in   Unknown
8:00 PM 43.9 °F - 41.4 °F 91% 29.79 in - West 1.2 mph - 0.01 in   Unknown
9:00 PM 43.5 °F - 41.0 °F 91% 29.82 in - Calm Calm - 0.01 in   Unknown
10:00 PM 43.5 °F - 41.2 °F 91% 29.84 in - East 2.3 mph - 0.02 in   Unknown
11:00 PM 43 °F - 40 °F 86% 29.86 in - ENE 1.2 mph - -  
11:00 PM 42.6 °F - 40.3 °F 91% 29.86 in - ENE 1.2 mph - N/A   Unknown